Weather History for KCMH - September, 2013

Change the Weather History Date:

Tuesday, September 10, 2013

  Actual Average Record
Temperature  
Mean Temperature 85 °F 69 °F  
Max Temperature 95 °F 79 °F 96 °F (1964)
Min Temperature 75 °F 59 °F 41 °F (1943)
Degree Days  
Heating Degree Days 0 1  
Month to date heating degree days 2 8  
Since 1 July heating degree days 6 8  
Cooling Degree Days 20 5  
Month to date cooling degree days 83 62  
Year to date cooling degree days 1084 951  
Growing Degree Days 35 (Base 50)    
Moisture  
Dew Point 70 °F    
Average Humidity 63    
Maximum Humidity 82    
Minimum Humidity 43    
Precipitation  
Precipitation 0.00 in 0.10 in 1.82 in (1894)
Month to date precipitation T 1.01  
Year to date precipitation 26.64 28.70  
Snow  
Snow 0.00 in 0.00 in 0.00 in ()
Month to date snowfall 0.0 0.0  
Since 1 July snowfall 0.0 0.0  
Since 1 September snowfall 0.0 0.0  
Snow Depth 0.00 in    
Sea Level Pressure  
Sea Level Pressure 30.07 in    
Wind  
Wind Speed 8 mph (SSW)    
Max Wind Speed 16 mph    
Max Gust Speed 23 mph    
Visibility 8 miles    
Events      
T = Trace of Precipitation, MM = Missing Value Source: NWS Daily Summary

Daily Weather History Graph

Daily Weather History Graph

Search for Another Location

Airport or City:

Trip Planner

Search our weather history database for the weather conditions in past years. The results will help you decide how hot, cold, wet, or windy it might be!

Date:

Astronomy

Sep. 10, 2013 Rise Set
Actual Time 7:08 AM EDT 7:48 PM EDT
Civil Twilight 6:40 AM EDT 8:15 PM EDT
Nautical Twilight 6:08 AM EDT 8:47 PM EDT
Astronomical Twilight 5:34 AM EDT 9:20 PM EDT
Moon 12:32 PM EDT (9/10) 10:50 PM EDT (9/10)
Length of Visible Light 13h 34m
Length of Day
12h 40m
Waxing Crescent, 28% of the Moon is Illuminated
Sep 10
Waxing Crescent
Sep 12
First Quarter
Sep 19
Full
Sep 26
Last Quarter
Oct 4
New

Hourly Weather History & Observations

Time (EDT) Temp. Heat Index Dew Point Humidity Pressure Visibility Wind Dir Wind Speed Gust Speed Precip Events Conditions
12:51 AM 78.1 °F - 68.0 °F 71% 30.01 in 10.0 mi South 6.9 mph - N/A   Mostly Cloudy
1:51 AM 77.0 °F - 68.0 °F 74% 30.02 in 9.0 mi SSW 4.6 mph - N/A   Mostly Cloudy
2:51 AM 77.0 °F - 69.1 °F 76% 30.02 in 9.0 mi SSW 5.8 mph - N/A   Mostly Cloudy
3:51 AM 78.1 °F - 68.0 °F 71% 30.03 in 9.0 mi SW 11.5 mph - N/A   Mostly Cloudy
4:51 AM 75.9 °F - 69.1 °F 79% 30.04 in 8.0 mi South 4.6 mph - N/A   Mostly Cloudy
5:51 AM 75.0 °F - 69.1 °F 82% 30.06 in 8.0 mi South 5.8 mph - N/A   Overcast
6:51 AM 75.0 °F - 69.1 °F 82% 30.07 in 8.0 mi South 4.6 mph - N/A   Partly Cloudy
7:51 AM 75.0 °F - 69.1 °F 82% 30.08 in 6.0 mi South 4.6 mph - N/A   Haze
8:51 AM 77.0 °F - 69.1 °F 76% 30.09 in 6.0 mi SW 6.9 mph - N/A   Haze
9:51 AM 80.1 °F 83.2 °F 70.0 °F 71% 30.10 in 6.0 mi SSW 9.2 mph - N/A   Haze
10:51 AM 82.9 °F 87.5 °F 71.1 °F 67% 30.10 in 7.0 mi SSW 6.9 mph - N/A   Clear
11:51 AM 88.0 °F 94.7 °F 72.0 °F 59% 30.10 in 7.0 mi SW 11.5 mph - N/A   Clear
12:51 PM 91.0 °F 98.2 °F 72.0 °F 53% 30.09 in 7.0 mi SW 8.1 mph - N/A   Clear
1:51 PM 91.9 °F 99.5 °F 72.0 °F 52% 30.08 in 8.0 mi SSW 11.5 mph 17.3 mph N/A   Partly Cloudy
2:51 PM 93.9 °F 100.8 °F 71.1 °F 47% 30.06 in 9.0 mi SW 11.5 mph - N/A   Scattered Clouds
3:51 PM 95.0 °F 102.5 °F 71.1 °F 46% 30.06 in 9.0 mi SSW 12.7 mph - N/A   Scattered Clouds
4:51 PM 95.0 °F 101.3 °F 70.0 °F 44% 30.04 in 9.0 mi SSW 11.5 mph 19.6 mph N/A   Mostly Cloudy
5:51 PM 93.0 °F 100.1 °F 71.1 °F 49% 30.04 in 9.0 mi SSW 12.7 mph - N/A   Mostly Cloudy
6:51 PM 91.0 °F 97.6 °F 71.1 °F 52% 30.05 in 8.0 mi SSW 12.7 mph - N/A   Mostly Cloudy
7:51 PM 89.1 °F 96.0 °F 72.0 °F 57% 30.07 in 8.0 mi SSW 8.1 mph - N/A   Scattered Clouds
8:51 PM 87.1 °F 93.6 °F 72.0 °F 61% 30.09 in 8.0 mi SSW 4.6 mph - N/A   Scattered Clouds
9:51 PM 84.9 °F 90.7 °F 72.0 °F 65% 30.11 in 8.0 mi SSW 5.8 mph - N/A   Scattered Clouds
10:51 PM 82.9 °F 88.0 °F 72.0 °F 69% 30.11 in 8.0 mi South 4.6 mph - N/A   Scattered Clouds
11:51 PM 81.0 °F 85.2 °F 72.0 °F 74% 30.11 in 8.0 mi South 4.6 mph - N/A   Partly Cloudy